Starlink 31296

operational
NORAD ID: 58879 Int'l Des: 2024-020 Owner: SPXS Country: US Constellation: starlink
LEOCIRCULAR

Über Starlink 31296

Beschreibung wird geladen...

Live-Position

3D-Globus wird geladen...

Nächste Überflüge

Höhenverlauf

Altitude vs Time

uPlot chart will show altitude changes over time

Zweizeiliger Elementsatz

1 58879U 24020D 25258.64464203 .00002280 00000-0 89111-4 0 9992
2 58879 53.1625 29.7227 0001213 89.0933 271.0207 15.30193866 91639
Epoch: 15. Sept. 2025 • Age: 25 hours

Aktueller Status

Höhe 484.5 km
Geschwindigkeit 7.62 km/s
Subsatellitenpunkt -29.01°S, 118.77°E
Startdatum 29. Jan. 2024
Alter 1.6 years
Typ internet

Technische Details

Klassifizierung Payload
Masse 730.00 kg
Trockenmasse 700.00 kg
Gesamtmasse 730.00 kg
Länge 0.30 m
Durchmesser 4.10 m
Spannweite 29.00 m
Form Box + pan
Hersteller SPXS
Bus-Typ Starlink V2M
Phasenstatus In Orbit
Besitzer/Staat SPXS/US

Große Konstellationen

Loading constellations...